Del Rio, TX

4:07 PM CDT on June 21, 2018 (GMT -0500)
Del Rio International

Weather History for KDRT - October, 2017

Change the Weather History Date:

Thursday, October 12, 2017

  Actual Average Record
Temperature  
Mean Temperature 72 °F 73 °F  
Max Temperature 82 °F 84 °F 98 °F (2015)
Min Temperature 62 °F 62 °F 44 °F (1946)
Degree Days  
Heating Degree Days 0 0  
Month to date heating degree days 0 0  
Since 1 July heating degree days 0 1  
Cooling Degree Days 7 8  
Month to date cooling degree days 142 117  
Year to date cooling degree days 3431 3212  
Growing Degree Days 22 (Base 50)    
Moisture  
Dew Point 62 °F    
Average Humidity 71    
Maximum Humidity 84    
Minimum Humidity 58    
Precipitation  
Precipitation 0.00 in 0.09 in 1.53 in (1969)
Month to date precipitation 0.43 1.04  
Year to date precipitation 22.65 16.75  
Sea Level Pressure  
Sea Level Pressure 30.02 in    
Wind  
Wind Speed 9 mph (SE)    
Max Wind Speed 17 mph    
Max Gust Speed 23 mph    
Visibility 10 miles    
Events      
T = Trace of Precipitation, MM = Missing Value Source: NWS Daily Summary

Daily Weather History Graph

Daily Weather History Graph

Search for Another Location

Airport or City:

Astronomy

Oct. 12, 2017 Rise Set
Actual Time 7:43 AM CDT 7:16 PM CDT
Civil Twilight 7:19 AM CDT 7:40 PM CDT
Nautical Twilight 6:51 AM CDT 8:07 PM CDT
Astronomical Twilight 6:24 AM CDT 8:35 PM CDT
Moon 12:39 AM CDT (10/12) 2:40 PM CDT (10/12)
Length of Visible Light 12h 20m
Length of Day
11h 32m
Waning Gibbous, 48% of the Moon is Illuminated
Oct 12
Waning Gibbous
Oct 19
New
Oct 27
First Quarter
Nov 4
Full
Nov 10
Last Quarter

Hourly Weather History & Observations

Time (CDT) Temp. Heat Index Dew Point Humidity Pressure Visibility Wind Dir Wind Speed Gust Speed Precip Events Conditions
12:53 AM 63.0 °F - 57.0 °F 81% 30.06 in 10.0 mi ESE 4.6 mph - N/A   Clear
1:53 AM 63.0 °F - 57.0 °F 81% 30.06 in 10.0 mi East 4.6 mph - N/A   Scattered Clouds
2:53 AM 64.0 °F - 57.0 °F 78% 30.06 in 10.0 mi ESE 5.8 mph - N/A   Overcast
3:53 AM 64.9 °F - 57.9 °F 78% 30.05 in 10.0 mi ESE 4.6 mph - N/A   Overcast
4:53 AM 64.9 °F - 57.9 °F 78% 30.05 in 10.0 mi ESE 4.6 mph - N/A   Overcast
5:53 AM 66.0 °F - 57.0 °F 73% 30.05 in 10.0 mi East 4.6 mph - N/A   Overcast
6:53 AM 66.0 °F - 57.0 °F 73% 30.06 in 10.0 mi SE 4.6 mph - N/A   Overcast
7:53 AM 66.0 °F - 57.0 °F 73% 30.06 in 10.0 mi East 5.8 mph - N/A   Overcast
8:53 AM 66.9 °F - 57.0 °F 70% 30.07 in 10.0 mi East 8.1 mph - N/A   Partly Cloudy
9:53 AM 70.0 °F - 57.0 °F 63% 30.06 in 10.0 mi ESE 10.4 mph - N/A   Clear
10:53 AM 73.0 °F - 61.0 °F 66% 30.07 in 10.0 mi SE 10.4 mph - N/A   Partly Cloudy
11:53 AM 75.0 °F - 63.0 °F 66% 30.06 in 10.0 mi SE 10.4 mph - N/A   Clear
12:53 PM 78.1 °F - 64.9 °F 64% 30.04 in 10.0 mi SSE 15.0 mph - N/A   Clear
1:53 PM 79.0 °F - 66.0 °F 64% 30.01 in 10.0 mi SE 15.0 mph 23.0 mph N/A   Scattered Clouds
2:53 PM 81.0 °F 83.3 °F 66.9 °F 62% 29.98 in 10.0 mi SE 16.1 mph - N/A   Scattered Clouds
3:53 PM 81.0 °F 83.3 °F 66.9 °F 62% 29.96 in 10.0 mi SSE 12.7 mph 20.7 mph N/A   Scattered Clouds
4:53 PM 82.0 °F 84.5 °F 66.9 °F 60% 29.95 in 10.0 mi SSE 12.7 mph - N/A   Partly Cloudy
5:53 PM 81.0 °F 83.0 °F 66.0 °F 60% 29.95 in 10.0 mi SE 12.7 mph - N/A   Clear
6:53 PM 79.0 °F - 66.0 °F 64% 29.95 in 10.0 mi SE 8.1 mph - N/A   Clear
7:53 PM 75.9 °F - 66.0 °F 71% 29.96 in 10.0 mi ESE 6.9 mph - N/A   Clear
8:53 PM 75.0 °F - 66.0 °F 73% 29.97 in 10.0 mi SE 8.1 mph - N/A   Clear
9:53 PM 73.9 °F - 66.0 °F 76% 29.98 in 10.0 mi SE 6.9 mph - N/A   Clear
10:53 PM 73.0 °F - 66.0 °F 79% 29.99 in 10.0 mi ESE 6.9 mph - N/A   Clear
11:53 PM 72.0 °F - 66.0 °F 81% 29.99 in 10.0 mi ESE 4.6 mph - N/A   Clear